Crockett, TX

12:40 AM CDT on April 25, 2017 (GMT -0500)
Crockett

Weather History for KDKR - March, 2013

Change the Weather History Date:

Tuesday, March 5, 2013

  Actual Average (KLFK) Record (KLFK)
Temperature  
Mean Temperature 54 °F -  
Max Temperature 62 °F 64 °F 87 °F (1946)
Min Temperature 44 °F 43 °F 24 °F (1917)
Degree Days  
Heating Degree Days 11    
Growing Degree Days 4 (Base 50)    
Moisture  
Dew Point 33 °F    
Average Humidity 45    
Maximum Humidity 94    
Minimum Humidity 22    
Precipitation  
Precipitation 0.00 in - - ()
Sea Level Pressure  
Sea Level Pressure 30.20 in    
Wind  
Wind Speed 10 mph (NNW)    
Max Wind Speed 20 mph    
Max Gust Speed 30 mph    
Visibility 10 miles    
Events      
Averages and records for this station are not official NWS values.
T = Trace of Precipitation, MM = Missing Value Source: NWS Daily Summary

Daily Weather History Graph

Daily Weather History Graph

Search for Another Location

Airport or City:

Trip Planner

Search our weather history database for the weather conditions in past years. The results will help you decide how hot, cold, wet, or windy it might be!

Date:

Astronomy

Mar. 05, 2013 Rise Set
Actual Time 6:43 AM CST 6:22 PM CST
Civil Twilight 6:19 AM CST 6:47 PM CST
Nautical Twilight 5:51 AM CST 7:15 PM CST
Astronomical Twilight 5:23 AM CST 7:43 PM CST
Moon 1:40 AM CST (3/5) 12:19 PM CST (3/5)
Length of Visible Light 12h 28m
Length of Day
11h 39m
Last Quarter, 40% of the Moon is Illuminated
Mar 5
Last Quarter
Mar 11
New
Mar 19
First Quarter
Mar 27
Full
Apr 2
Last Quarter

Hourly Weather History & Observations

Time (CST) Temp. Windchill Dew Point Humidity Pressure Visibility Wind Dir Wind Speed Gust Speed Precip Events Conditions
12:35 AM 62.6 °F - 59.0 °F 88% 29.80 in 9.0 mi South 9.2 mph - N/A   Clear
12:55 AM 62.6 °F - 59.0 °F 88% 29.79 in 8.0 mi South 6.9 mph - N/A   Clear
1:35 AM 62.6 °F - 59.0 °F 88% 29.80 in 9.0 mi South 9.2 mph - N/A   Mostly Cloudy
1:55 AM 62.6 °F - 59.0 °F 88% 29.80 in 8.0 mi South 8.1 mph - N/A   Overcast
2:15 AM 62.6 °F - 59.0 °F 88% 29.82 in 9.0 mi SSW 8.1 mph - N/A   Overcast
3:35 AM 60.8 °F - 57.2 °F 88% 29.91 in - SW 6.9 mph - N/A   Unknown
3:55 AM 60.8 °F - 59.0 °F 94% 29.92 in 8.0 mi WSW 6.9 mph - N/A   Scattered Clouds
4:35 AM 59.0 °F - 48.2 °F 67% 29.98 in 10.0 mi WNW 17.3 mph 26.5 mph N/A   Overcast
4:55 AM 55.4 °F - 44.6 °F 67% 30.01 in 10.0 mi NW 17.3 mph 25.3 mph N/A   Mostly Cloudy
5:15 AM 55.4 °F - 44.6 °F 67% 30.04 in 10.0 mi NW 16.1 mph 21.9 mph N/A   Overcast
5:35 AM 53.6 °F - 42.8 °F 67% 30.06 in 10.0 mi NNW 15.0 mph 23.0 mph N/A   Mostly Cloudy
5:55 AM 51.8 °F - 41.0 °F 67% 30.09 in 10.0 mi NNW 13.8 mph 21.9 mph N/A   Clear
6:55 AM 50.0 °F - 37.4 °F 62% 30.15 in 9.0 mi North 10.4 mph 19.6 mph N/A   Partly Cloudy
7:15 AM 50.0 °F - 37.4 °F 62% 30.16 in 10.0 mi North 12.7 mph 23.0 mph N/A   Clear
7:35 AM 51.8 °F - 35.6 °F 54% 30.18 in 10.0 mi North 11.5 mph 18.4 mph N/A   Clear
8:15 AM 51.8 °F - 35.6 °F 54% 30.20 in 10.0 mi North 11.5 mph 17.3 mph N/A   Clear
8:35 AM 51.8 °F - 35.6 °F 54% 30.21 in 10.0 mi North 18.4 mph 26.5 mph N/A   Clear
8:55 AM 53.6 °F - 33.8 °F 47% 30.23 in 10.0 mi NNW 16.1 mph 23.0 mph N/A   Clear
9:15 AM 53.6 °F - 32.0 °F 44% 30.23 in 10.0 mi North 19.6 mph 29.9 mph N/A   Clear
9:35 AM 55.4 °F - 32.0 °F 41% 30.23 in 10.0 mi North 12.7 mph 21.9 mph N/A   Clear
9:55 AM 55.4 °F - 33.8 °F 44% 30.23 in 10.0 mi North 9.2 mph 18.4 mph N/A   Clear
10:15 AM 55.4 °F - 32.0 °F 41% 30.24 in 10.0 mi NNW 11.5 mph 24.2 mph N/A   Clear
10:55 AM 57.2 °F - 32.0 °F 38% 30.25 in 10.0 mi North 13.8 mph 19.6 mph N/A   Clear
11:15 AM 59.0 °F - 30.2 °F 34% 30.25 in 10.0 mi NNW 17.3 mph 23.0 mph N/A   Clear
11:35 AM 59.0 °F - 30.2 °F 34% 30.26 in 10.0 mi North 12.7 mph 24.2 mph N/A   Clear
11:55 AM 60.8 °F - 30.2 °F 31% 30.26 in 10.0 mi North 13.8 mph 21.9 mph N/A   Clear
12:15 PM 59.0 °F - 32.0 °F 36% 30.26 in 10.0 mi North 11.5 mph 25.3 mph N/A   Clear
12:35 PM 60.8 °F - 30.2 °F 31% 30.26 in 10.0 mi North 16.1 mph 23.0 mph N/A   Clear
12:55 PM 60.8 °F - 30.2 °F 31% 30.25 in 10.0 mi NNW 12.7 mph 24.2 mph N/A   Clear
1:15 PM 60.8 °F - 30.2 °F 31% 30.24 in 10.0 mi NNW 17.3 mph 24.2 mph N/A   Clear
1:35 PM 62.6 °F - 30.2 °F 30% 30.24 in 10.0 mi North 15.0 mph 21.9 mph N/A   Clear
1:55 PM 62.6 °F - 28.4 °F 27% 30.24 in 10.0 mi North 16.1 mph 19.6 mph N/A   Clear
2:15 PM 62.6 °F - 28.4 °F 27% 30.24 in 10.0 mi North 15.0 mph 20.7 mph N/A   Clear
2:35 PM 62.6 °F - 26.6 °F 26% 30.24 in 10.0 mi NNW 13.8 mph 19.6 mph N/A   Clear
2:55 PM 62.6 °F - 24.8 °F 24% 30.24 in 10.0 mi North 16.1 mph 21.9 mph N/A   Clear
3:15 PM 62.6 °F - 26.6 °F 26% 30.25 in 10.0 mi NW 10.4 mph 20.7 mph N/A   Clear
3:35 PM 62.6 °F - 24.8 °F 24% 30.25 in 10.0 mi NNW 12.7 mph 19.6 mph N/A   Clear
3:55 PM 62.6 °F - 23.0 °F 22% 30.25 in 10.0 mi NNW 13.8 mph 20.7 mph N/A   Clear
4:15 PM 62.6 °F - 23.0 °F 22% 30.25 in 10.0 mi NNW 11.5 mph 17.3 mph N/A   Clear
4:35 PM 60.8 °F - 23.0 °F 23% 30.26 in 10.0 mi North 5.8 mph - N/A   Clear
4:55 PM 60.8 °F - 24.8 °F 25% 30.26 in 10.0 mi NW 10.4 mph - N/A   Clear
5:15 PM 60.8 °F - 23.0 °F 23% 30.26 in 10.0 mi NNW 9.2 mph - N/A   Clear
5:55 PM 57.2 °F - 26.6 °F 31% 30.28 in 10.0 mi North 4.6 mph - N/A   Clear
6:15 PM 55.4 °F - 26.6 °F 33% 30.28 in 10.0 mi NNW 5.8 mph - N/A   Clear
6:35 PM 53.6 °F - 24.8 °F 33% 30.30 in 10.0 mi North 6.9 mph - N/A   Clear
6:55 PM 53.6 °F - 24.8 °F 33% 30.31 in 10.0 mi Calm Calm - N/A   Clear
7:15 PM 51.8 °F - 24.8 °F 35% 30.32 in 10.0 mi Calm Calm - N/A   Clear
7:35 PM 51.8 °F - 24.8 °F 35% 30.33 in 10.0 mi Calm Calm - N/A   Clear
7:55 PM 48.2 °F - 26.6 °F 43% 30.33 in 10.0 mi NNW 5.8 mph - N/A   Clear
8:15 PM 48.2 °F - 26.6 °F 43% 30.34 in 10.0 mi Calm Calm - N/A   Clear
8:35 PM 48.2 °F - 26.6 °F 43% 30.34 in 10.0 mi NNW 3.5 mph - N/A   Clear
8:55 PM 46.4 °F 44.3 °F 26.6 °F 46% 30.34 in 10.0 mi NNW 4.6 mph - N/A   Clear
9:15 PM 46.4 °F 43.5 °F 24.8 °F 43% 30.35 in 10.0 mi NNW 5.8 mph - N/A   Clear
9:35 PM 46.4 °F 43.5 °F 24.8 °F 43% 30.35 in 10.0 mi North 5.8 mph - N/A   Clear
9:55 PM 46.4 °F 42.9 °F 24.8 °F 43% 30.35 in 10.0 mi North 6.9 mph - N/A   Clear
10:15 PM 46.4 °F 42.9 °F 23.0 °F 40% 30.35 in 10.0 mi North 6.9 mph - N/A   Clear
10:35 PM 46.4 °F 44.3 °F 23.0 °F 40% 30.36 in 10.0 mi North 4.6 mph - N/A   Clear
10:55 PM 46.4 °F 45.2 °F 23.0 °F 40% 30.36 in 10.0 mi North 3.5 mph - N/A   Clear
11:15 PM 46.4 °F 42.9 °F 23.0 °F 40% 30.35 in 10.0 mi North 6.9 mph - N/A   Clear
11:35 PM 46.4 °F 43.5 °F 23.0 °F 40% 30.35 in 10.0 mi North 5.8 mph - N/A   Clear
11:55 PM 44.6 °F 43.1 °F 23.0 °F 43% 30.35 in 10.0 mi North 3.5 mph - N/A   Clear